Year,Month,Day,Hour,Minute,Value (Times are PST for temperature in C)
2012,09,15,00,00,13.50
2012,09,15,00,01,13.50
2012,09,15,00,02,13.50
2012,09,15,00,03,13.50
2012,09,15,00,04,13.50
2012,09,15,00,05,13.50
2012,09,15,00,06,13.60
2012,09,15,00,07,13.60
2012,09,15,00,08,13.60
2012,09,15,00,09,13.70
2012,09,15,00,10,13.70
2012,09,15,00,11,13.70
2012,09,15,00,12,13.70
2012,09,15,00,13,13.80
2012,09,15,00,14,13.90
2012,09,15,00,15,13.90
2012,09,15,00,16,14.00
2012,09,15,00,17,14.20
2012,09,15,00,18,14.30
2012,09,15,00,19,14.40
2012,09,15,00,20,14.50
2012,09,15,00,21,14.60
2012,09,15,00,22,14.60
2012,09,15,00,23,14.60
2012,09,15,00,24,14.50
2012,09,15,00,25,14.50
2012,09,15,00,26,14.40
2012,09,15,00,27,14.30
2012,09,15,00,28,14.20
2012,09,15,00,29,14.20
2012,09,15,00,30,14.10
2012,09,15,00,31,14.00
2012,09,15,00,32,13.90
2012,09,15,00,33,13.80
2012,09,15,00,34,13.70
2012,09,15,00,35,13.70
2012,09,15,00,36,13.70
2012,09,15,00,37,13.60
2012,09,15,00,38,13.60
2012,09,15,00,39,13.60
2012,09,15,00,40,13.60
2012,09,15,00,41,13.50
2012,09,15,00,42,13.50
2012,09,15,00,43,13.40
2012,09,15,00,44,13.40
2012,09,15,00,45,13.40
2012,09,15,00,46,13.50
2012,09,15,00,47,13.50
2012,09,15,00,48,13.50
2012,09,15,00,49,13.50
2012,09,15,00,50,13.50
2012,09,15,00,51,13.50
2012,09,15,00,52,13.60
2012,09,15,00,53,13.60
2012,09,15,00,54,13.50
2012,09,15,00,55,13.50
2012,09,15,00,56,13.50
2012,09,15,00,57,13.50
2012,09,15,00,58,13.50
2012,09,15,00,59,13.40
2012,09,15,01,00,13.40
2012,09,15,01,01,13.40
2012,09,15,01,02,13.40
2012,09,15,01,03,13.40
2012,09,15,01,04,13.40
2012,09,15,01,05,13.40
2012,09,15,01,06,13.40
2012,09,15,01,07,13.40
2012,09,15,01,08,13.40
2012,09,15,01,09,13.50
2012,09,15,01,10,13.50
2012,09,15,01,11,13.50
2012,09,15,01,12,13.40
2012,09,15,01,13,13.40
2012,09,15,01,14,13.40
2012,09,15,01,15,13.40
2012,09,15,01,16,13.40
2012,09,15,01,17,13.30
2012,09,15,01,18,13.30
2012,09,15,01,19,13.30
2012,09,15,01,20,13.30
2012,09,15,01,21,13.30
2012,09,15,01,22,13.20
2012,09,15,01,23,13.20
2012,09,15,01,24,13.20
2012,09,15,01,25,13.20
2012,09,15,01,26,13.10
2012,09,15,01,27,13.10
2012,09,15,01,28,13.10
2012,09,15,01,29,13.00
2012,09,15,01,30,13.00
2012,09,15,01,31,12.90
2012,09,15,01,32,12.90
2012,09,15,01,33,12.90
2012,09,15,01,34,12.80
2012,09,15,01,35,12.80
2012,09,15,01,36,12.70
2012,09,15,01,37,12.70
2012,09,15,01,38,12.70
2012,09,15,01,39,12.60
2012,09,15,01,40,12.60
2012,09,15,01,41,12.50
2012,09,15,01,42,12.50
2012,09,15,01,43,12.50
2012,09,15,01,44,12.50
2012,09,15,01,45,12.40
2012,09,15,01,46,12.40
2012,09,15,01,47,12.40
2012,09,15,01,48,12.40
2012,09,15,01,49,12.40
2012,09,15,01,50,12.40
2012,09,15,01,51,12.30
2012,09,15,01,52,12.30
2012,09,15,01,53,12.30
2012,09,15,01,54,12.30
2012,09,15,01,55,12.30
2012,09,15,01,56,12.30
2012,09,15,01,57,12.30
2012,09,15,01,58,12.30
2012,09,15,01,59,12.30
2012,09,15,02,00,12.30
2012,09,15,02,01,12.30
2012,09,15,02,02,12.30
2012,09,15,02,03,12.30
2012,09,15,02,04,12.30
2012,09,15,02,05,12.30
2012,09,15,02,06,12.20
2012,09,15,02,07,12.20
2012,09,15,02,08,12.20
2012,09,15,02,09,12.20
2012,09,15,02,10,12.20
2012,09,15,02,11,12.20
2012,09,15,02,12,12.20
2012,09,15,02,13,12.20
2012,09,15,02,14,12.20
2012,09,15,02,15,12.20
2012,09,15,02,16,12.20
2012,09,15,02,17,12.20
2012,09,15,02,18,12.10
2012,09,15,02,19,12.10
2012,09,15,02,20,12.10
2012,09,15,02,21,12.10
2012,09,15,02,22,12.10
2012,09,15,02,23,12.10
2012,09,15,02,24,12.10
2012,09,15,02,25,12.10
2012,09,15,02,26,12.10
2012,09,15,02,27,12.10
2012,09,15,02,28,12.00
2012,09,15,02,29,12.00
2012,09,15,02,30,12.00
2012,09,15,02,31,12.00
2012,09,15,02,32,12.00
2012,09,15,02,33,12.00
2012,09,15,02,34,12.00
2012,09,15,02,35,12.00
2012,09,15,02,36,11.90
2012,09,15,02,37,11.90
2012,09,15,02,38,11.90
2012,09,15,02,39,11.90
2012,09,15,02,40,11.90
2012,09,15,02,41,11.90
2012,09,15,02,42,11.90
2012,09,15,02,43,11.80
2012,09,15,02,44,11.80
2012,09,15,02,45,11.80
2012,09,15,02,46,11.80
2012,09,15,02,47,11.80
2012,09,15,02,48,11.80
2012,09,15,02,49,11.80
2012,09,15,02,50,11.80
2012,09,15,02,51,11.80
2012,09,15,02,52,11.80
2012,09,15,02,53,11.80
2012,09,15,02,54,11.80
2012,09,15,02,55,11.80
2012,09,15,02,56,11.80
2012,09,15,02,57,11.80
2012,09,15,02,58,11.80
2012,09,15,02,59,11.80
2012,09,15,03,00,11.80
2012,09,15,03,01,11.70
2012,09,15,03,02,11.70
2012,09,15,03,03,11.70
2012,09,15,03,04,11.70
2012,09,15,03,05,11.70
2012,09,15,03,06,11.70
2012,09,15,03,07,11.70
2012,09,15,03,08,11.60
2012,09,15,03,09,11.60
2012,09,15,03,10,11.60
2012,09,15,03,11,11.60
2012,09,15,03,12,11.60
2012,09,15,03,13,11.60
2012,09,15,03,14,11.60
2012,09,15,03,15,11.60
2012,09,15,03,16,11.60
2012,09,15,03,17,11.60
2012,09,15,03,18,11.60
2012,09,15,03,19,11.60
2012,09,15,03,20,11.60
2012,09,15,03,21,11.60
2012,09,15,03,22,11.60
2012,09,15,03,23,11.60
2012,09,15,03,24,11.60
2012,09,15,03,25,11.60
2012,09,15,03,26,11.60
2012,09,15,03,27,11.60
2012,09,15,03,28,11.60
2012,09,15,03,29,11.60
2012,09,15,03,30,11.60
2012,09,15,03,31,11.60
2012,09,15,03,32,11.50
2012,09,15,03,33,11.40
2012,09,15,03,34,11.40
2012,09,15,03,35,11.40
2012,09,15,03,36,11.40
2012,09,15,03,37,11.40
2012,09,15,03,38,11.40
2012,09,15,03,39,11.40
2012,09,15,03,40,11.40
2012,09,15,03,41,11.40
2012,09,15,03,42,11.40
2012,09,15,03,43,11.40
2012,09,15,03,44,11.40
2012,09,15,03,45,11.40
2012,09,15,03,46,11.30
2012,09,15,03,47,11.30
2012,09,15,03,48,11.30
2012,09,15,03,49,11.20
2012,09,15,03,50,11.20
2012,09,15,03,51,11.20
2012,09,15,03,52,11.20
2012,09,15,03,53,11.20
2012,09,15,03,54,11.20
2012,09,15,03,55,11.20
2012,09,15,03,56,11.20
2012,09,15,03,57,11.20
2012,09,15,03,58,11.20
2012,09,15,03,59,11.20
2012,09,15,04,00,11.20
2012,09,15,04,01,11.20
2012,09,15,04,02,11.20
2012,09,15,04,03,11.20
2012,09,15,04,04,11.20
2012,09,15,04,05,11.10
2012,09,15,04,06,11.10
2012,09,15,04,07,11.10
2012,09,15,04,08,11.10
2012,09,15,04,09,11.10
2012,09,15,04,10,11.10
2012,09,15,04,11,11.10
2012,09,15,04,12,11.10
2012,09,15,04,13,11.10
2012,09,15,04,14,11.10
2012,09,15,04,15,11.10
2012,09,15,04,16,11.10
2012,09,15,04,17,11.10
2012,09,15,04,18,11.10
2012,09,15,04,19,11.10
2012,09,15,04,20,11.10
2012,09,15,04,21,11.10
2012,09,15,04,22,11.00
2012,09,15,04,23,10.90
2012,09,15,04,24,10.90
2012,09,15,04,25,10.90
2012,09,15,04,26,10.90
2012,09,15,04,27,10.90
2012,09,15,04,28,10.90
2012,09,15,04,29,10.90
2012,09,15,04,30,10.90
2012,09,15,04,31,10.90
2012,09,15,04,32,10.90
2012,09,15,04,33,10.90
2012,09,15,04,34,10.90
2012,09,15,04,35,10.90
2012,09,15,04,36,10.90
2012,09,15,04,37,10.90
2012,09,15,04,38,10.90
2012,09,15,04,39,10.90
2012,09,15,04,40,10.90
2012,09,15,04,41,10.90
2012,09,15,04,42,10.90
2012,09,15,04,43,10.90
2012,09,15,04,44,10.90
2012,09,15,04,45,10.90
2012,09,15,04,46,10.90
2012,09,15,04,47,10.90
2012,09,15,04,48,10.90
2012,09,15,04,49,10.90
2012,09,15,04,50,10.90
2012,09,15,04,51,10.90
2012,09,15,04,52,11.00
2012,09,15,04,53,11.10
2012,09,15,04,54,11.10
2012,09,15,04,55,11.20
2012,09,15,04,56,11.20
2012,09,15,04,57,11.30
2012,09,15,04,58,11.30
2012,09,15,04,59,11.40
2012,09,15,05,00,11.40
2012,09,15,05,01,11.40
2012,09,15,05,02,11.40
2012,09,15,05,03,11.40
2012,09,15,05,04,11.40
2012,09,15,05,05,11.40
2012,09,15,05,06,11.40
2012,09,15,05,07,11.40
2012,09,15,05,08,11.40
2012,09,15,05,09,11.40
2012,09,15,05,10,11.40
2012,09,15,05,11,11.50
2012,09,15,05,12,11.60
2012,09,15,05,13,11.60
2012,09,15,05,14,11.60
2012,09,15,05,15,11.60
2012,09,15,05,16,11.60
2012,09,15,05,17,11.60
2012,09,15,05,18,11.70
2012,09,15,05,19,11.70
2012,09,15,05,20,11.70
2012,09,15,05,21,11.60
2012,09,15,05,22,11.60
2012,09,15,05,23,11.60
2012,09,15,05,24,11.60
2012,09,15,05,25,11.60
2012,09,15,05,26,11.60
2012,09,15,05,27,11.60
2012,09,15,05,28,11.60
2012,09,15,05,29,11.60
2012,09,15,05,30,11.60
2012,09,15,05,31,11.60
2012,09,15,05,32,11.60
2012,09,15,05,33,11.60
2012,09,15,05,34,11.60
2012,09,15,05,35,11.60
2012,09,15,05,36,11.60
2012,09,15,05,37,11.40
2012,09,15,05,38,11.40
2012,09,15,05,39,11.40
2012,09,15,05,40,11.40
2012,09,15,05,41,11.40
2012,09,15,05,42,11.40
2012,09,15,05,43,11.30
2012,09,15,05,44,11.30
2012,09,15,05,45,11.30
2012,09,15,05,46,11.20
2012,09,15,05,47,11.20
2012,09,15,05,48,11.20
2012,09,15,05,49,11.10
2012,09,15,05,50,11.10
2012,09,15,05,51,11.10
2012,09,15,05,52,11.10
2012,09,15,05,53,11.10
2012,09,15,05,54,11.10
2012,09,15,05,55,11.20
2012,09,15,05,56,11.20
2012,09,15,05,57,11.20
2012,09,15,05,58,11.30
2012,09,15,05,59,11.30
2012,09,15,06,00,11.30
2012,09,15,06,01,11.20
2012,09,15,06,02,11.20
2012,09,15,06,03,11.20
2012,09,15,06,04,11.10
2012,09,15,06,05,11.10
2012,09,15,06,06,11.10
2012,09,15,06,07,11.10
2012,09,15,06,08,11.20
2012,09,15,06,09,11.20
2012,09,15,06,10,11.10
2012,09,15,06,11,11.10
2012,09,15,06,12,11.10
2012,09,15,06,13,11.10
2012,09,15,06,14,11.10
2012,09,15,06,15,11.10
2012,09,15,06,16,11.10
2012,09,15,06,17,11.10
2012,09,15,06,18,11.10
2012,09,15,06,19,11.10
2012,09,15,06,20,11.10
2012,09,15,06,21,11.10
2012,09,15,06,22,11.00
2012,09,15,06,23,10.90
2012,09,15,06,24,10.90
2012,09,15,06,25,10.90
2012,09,15,06,26,10.90
2012,09,15,06,27,10.90
2012,09,15,06,28,10.90
2012,09,15,06,29,10.80
2012,09,15,06,30,10.80
2012,09,15,06,31,10.70
2012,09,15,06,32,10.70
2012,09,15,06,33,10.70
2012,09,15,06,34,10.70
2012,09,15,06,35,10.70
2012,09,15,06,36,10.70
2012,09,15,06,37,10.70
2012,09,15,06,38,10.70
2012,09,15,06,39,10.70
2012,09,15,06,40,10.70
2012,09,15,06,41,10.70
2012,09,15,06,42,10.80
2012,09,15,06,43,10.80
2012,09,15,06,44,10.80
2012,09,15,06,45,10.90
2012,09,15,06,46,10.90
2012,09,15,06,47,10.90
2012,09,15,06,48,10.90
2012,09,15,06,49,10.90
2012,09,15,06,50,10.90
2012,09,15,06,51,11.00
2012,09,15,06,52,11.10
2012,09,15,06,53,11.10
2012,09,15,06,54,11.10
2012,09,15,06,55,11.10
2012,09,15,06,56,11.10
2012,09,15,06,57,11.10
2012,09,15,06,58,11.10
2012,09,15,06,59,11.10
2012,09,15,07,00,11.10
2012,09,15,07,01,11.10
2012,09,15,07,02,11.10
2012,09,15,07,03,11.20
2012,09,15,07,04,11.20
2012,09,15,07,05,11.20
2012,09,15,07,06,11.20
2012,09,15,07,07,11.20
2012,09,15,07,08,11.30
2012,09,15,07,09,11.30
2012,09,15,07,10,11.30
2012,09,15,07,11,11.30
2012,09,15,07,12,11.30
2012,09,15,07,13,11.30
2012,09,15,07,14,11.30
2012,09,15,07,15,11.40
2012,09,15,07,16,11.40
2012,09,15,07,17,11.40
2012,09,15,07,18,11.40
2012,09,15,07,19,11.40
2012,09,15,07,20,11.40
2012,09,15,07,21,11.40
2012,09,15,07,22,11.40
2012,09,15,07,23,11.40
2012,09,15,07,24,11.40
2012,09,15,07,25,11.40
2012,09,15,07,26,11.40
2012,09,15,07,27,11.40
2012,09,15,07,28,11.40
2012,09,15,07,29,11.50
2012,09,15,07,30,11.60
2012,09,15,07,31,11.60
2012,09,15,07,32,11.60
2012,09,15,07,33,11.60
2012,09,15,07,34,11.70
2012,09,15,07,35,11.70
2012,09,15,07,36,11.80
2012,09,15,07,37,11.80
2012,09,15,07,38,11.80
2012,09,15,07,39,11.80
2012,09,15,07,40,11.80
2012,09,15,07,41,11.80
2012,09,15,07,42,11.80
2012,09,15,07,43,11.90
2012,09,15,07,44,11.90
2012,09,15,07,45,11.90
2012,09,15,07,46,11.90
2012,09,15,07,47,11.90
2012,09,15,07,48,11.90
2012,09,15,07,49,11.90
2012,09,15,07,50,11.90
2012,09,15,07,51,11.90
2012,09,15,07,52,11.90
2012,09,15,07,53,11.90
2012,09,15,07,54,11.80
2012,09,15,07,55,11.80
2012,09,15,07,56,11.80
2012,09,15,07,57,11.80
2012,09,15,07,58,11.80
2012,09,15,07,59,11.80
2012,09,15,08,00,11.80
2012,09,15,08,01,11.80
2012,09,15,08,02,11.80
2012,09,15,08,03,11.80
2012,09,15,08,04,11.80
2012,09,15,08,05,11.80
2012,09,15,08,06,11.80
2012,09,15,08,07,11.80
2012,09,15,08,08,11.90
2012,09,15,08,09,11.90
2012,09,15,08,10,11.90
2012,09,15,08,11,12.00
2012,09,15,08,12,12.00
2012,09,15,08,13,12.00
2012,09,15,08,14,12.00
2012,09,15,08,15,12.10
2012,09,15,08,16,12.10
2012,09,15,08,17,12.10
2012,09,15,08,18,12.10
2012,09,15,08,19,12.20
2012,09,15,08,20,12.20
2012,09,15,08,21,12.20
2012,09,15,08,22,12.30
2012,09,15,08,23,12.30
2012,09,15,08,24,12.30
2012,09,15,08,25,12.30
2012,09,15,08,26,12.30
2012,09,15,08,27,12.20
2012,09,15,08,28,12.20
2012,09,15,08,29,12.20
2012,09,15,08,30,12.20
2012,09,15,08,31,12.20
2012,09,15,08,32,12.20
2012,09,15,08,33,12.20
2012,09,15,08,34,12.20
2012,09,15,08,35,12.30
2012,09,15,08,36,12.30
2012,09,15,08,37,12.40
2012,09,15,08,38,12.50
2012,09,15,08,39,12.50
2012,09,15,08,40,12.60
2012,09,15,08,41,12.60
2012,09,15,08,42,12.60
2012,09,15,08,43,12.60
2012,09,15,08,44,12.60
2012,09,15,08,45,12.70
2012,09,15,08,46,12.70
2012,09,15,08,47,12.70
2012,09,15,08,48,12.70
2012,09,15,08,49,12.80
2012,09,15,08,50,12.80
2012,09,15,08,51,12.80
2012,09,15,08,52,12.80
2012,09,15,08,53,12.80
2012,09,15,08,54,12.90
2012,09,15,08,55,13.00
2012,09,15,08,56,13.00
2012,09,15,08,57,13.10
2012,09,15,08,58,13.10
2012,09,15,08,59,13.20
2012,09,15,09,00,13.20
2012,09,15,09,01,13.30
2012,09,15,09,02,13.40
2012,09,15,09,03,13.50
2012,09,15,09,04,13.60
2012,09,15,09,05,13.70
2012,09,15,09,06,13.80
2012,09,15,09,07,13.80
2012,09,15,09,08,13.90
2012,09,15,09,09,13.90
2012,09,15,09,10,14.00
2012,09,15,09,11,14.00
2012,09,15,09,12,14.10
2012,09,15,09,13,14.20
2012,09,15,09,14,14.30
2012,09,15,09,15,14.40
2012,09,15,09,16,14.50
2012,09,15,09,17,14.60
2012,09,15,09,18,14.60
2012,09,15,09,19,14.70
2012,09,15,09,20,14.70
2012,09,15,09,21,14.70
2012,09,15,09,22,14.70
2012,09,15,09,23,14.80
2012,09,15,09,24,14.80
2012,09,15,09,25,14.90
2012,09,15,09,26,15.00
2012,09,15,09,27,15.00
2012,09,15,09,28,15.10
2012,09,15,09,29,15.20
2012,09,15,09,30,15.20
2012,09,15,09,31,15.20
2012,09,15,09,32,15.30
2012,09,15,09,33,15.30
2012,09,15,09,34,15.40
2012,09,15,09,35,15.40
2012,09,15,09,36,15.40
2012,09,15,09,37,15.50
2012,09,15,09,38,15.50
2012,09,15,09,39,15.60
2012,09,15,09,40,15.60
2012,09,15,09,41,15.70
2012,09,15,09,42,15.80
2012,09,15,09,43,15.80
2012,09,15,09,44,15.90
2012,09,15,09,45,16.00
2012,09,15,09,46,16.10
2012,09,15,09,47,16.20
2012,09,15,09,48,16.20
2012,09,15,09,49,16.30
2012,09,15,09,50,16.30
2012,09,15,09,51,16.30
2012,09,15,09,52,16.40
2012,09,15,09,53,16.40
2012,09,15,09,54,16.40
2012,09,15,09,55,16.40
2012,09,15,09,56,16.40
2012,09,15,09,57,16.50
2012,09,15,09,58,16.60
2012,09,15,09,59,16.60
2012,09,15,10,00,16.70
2012,09,15,10,01,16.70
2012,09,15,10,02,16.70
2012,09,15,10,03,16.70
2012,09,15,10,04,16.70
2012,09,15,10,05,16.70
2012,09,15,10,06,16.70
2012,09,15,10,07,16.70
2012,09,15,10,08,16.70
2012,09,15,10,09,16.70
2012,09,15,10,10,16.80
2012,09,15,10,11,16.80
2012,09,15,10,12,16.90
2012,09,15,10,13,16.90
2012,09,15,10,14,16.90
2012,09,15,10,15,17.00
2012,09,15,10,16,17.00
2012,09,15,10,17,17.00
2012,09,15,10,18,17.00
2012,09,15,10,19,17.00
2012,09,15,10,20,16.90
2012,09,15,10,21,16.90
2012,09,15,10,22,16.90
2012,09,15,10,23,16.90
2012,09,15,10,24,16.90
2012,09,15,10,25,16.80
2012,09,15,10,26,16.80
2012,09,15,10,27,16.80
2012,09,15,10,28,16.70
2012,09,15,10,29,16.70
2012,09,15,10,30,16.70
2012,09,15,10,31,16.70
2012,09,15,10,32,16.70
2012,09,15,10,33,16.70
2012,09,15,10,34,16.70
2012,09,15,10,35,16.70
2012,09,15,10,36,16.70
2012,09,15,10,37,16.70
2012,09,15,10,38,16.80
2012,09,15,10,39,16.80
2012,09,15,10,40,16.90
2012,09,15,10,41,17.00
2012,09,15,10,42,17.00
2012,09,15,10,43,17.10
2012,09,15,10,44,17.10
2012,09,15,10,45,17.20
2012,09,15,10,46,17.10
2012,09,15,10,47,17.00
2012,09,15,10,48,17.00
2012,09,15,10,49,17.00
2012,09,15,10,50,16.90
2012,09,15,10,51,17.00
2012,09,15,10,52,17.00
2012,09,15,10,53,17.00
2012,09,15,10,54,17.10
2012,09,15,10,55,17.20
2012,09,15,10,56,17.20
2012,09,15,10,57,17.00
2012,09,15,10,58,16.90
2012,09,15,10,59,16.90
2012,09,15,11,00,16.80
2012,09,15,11,01,16.70
2012,09,15,11,02,16.70
2012,09,15,11,03,16.60
2012,09,15,11,04,16.60
2012,09,15,11,05,16.50
2012,09,15,11,06,16.40
2012,09,15,11,07,16.50
2012,09,15,11,08,16.60
2012,09,15,11,09,16.50
2012,09,15,11,10,16.40
2012,09,15,11,11,16.40
2012,09,15,11,12,16.60
2012,09,15,11,13,16.60
2012,09,15,11,14,16.60
2012,09,15,11,15,16.60
2012,09,15,11,16,16.60
2012,09,15,11,17,16.60
2012,09,15,11,18,16.60
2012,09,15,11,19,16.60
2012,09,15,11,20,16.60
2012,09,15,11,21,16.70
2012,09,15,11,22,16.70
2012,09,15,11,23,16.70
2012,09,15,11,24,16.70
2012,09,15,11,25,16.80
2012,09,15,11,26,16.80
2012,09,15,11,27,16.90
2012,09,15,11,28,17.00
2012,09,15,11,29,16.90
2012,09,15,11,30,16.90
2012,09,15,11,31,16.90
2012,09,15,11,32,17.00
2012,09,15,11,33,17.00
2012,09,15,11,34,17.10
2012,09,15,11,35,17.20
2012,09,15,11,36,17.30
2012,09,15,11,37,17.30
2012,09,15,11,38,17.40
2012,09,15,11,39,17.40
2012,09,15,11,40,17.40
2012,09,15,11,41,17.40
2012,09,15,11,42,17.40
2012,09,15,11,43,17.30
2012,09,15,11,44,17.30
2012,09,15,11,45,17.30
2012,09,15,11,46,17.30
2012,09,15,11,47,17.40
2012,09,15,11,48,17.40
2012,09,15,11,49,17.50
2012,09,15,11,50,17.50
2012,09,15,11,51,17.50
2012,09,15,11,52,17.50
2012,09,15,11,53,17.50
2012,09,15,11,54,17.50
2012,09,15,11,55,17.50
2012,09,15,11,56,17.60
2012,09,15,11,57,17.70
2012,09,15,11,58,17.80
2012,09,15,11,59,17.80
2012,09,15,12,00,17.90
2012,09,15,12,01,17.90
2012,09,15,12,02,18.00
2012,09,15,12,03,18.10
2012,09,15,12,04,18.10
2012,09,15,12,05,18.20
2012,09,15,12,06,18.20
2012,09,15,12,07,18.10
2012,09,15,12,08,18.10
2012,09,15,12,09,18.10
2012,09,15,12,10,17.90
2012,09,15,12,11,17.90
2012,09,15,12,12,17.90
2012,09,15,12,13,17.90
2012,09,15,12,14,17.90
2012,09,15,12,15,17.90
2012,09,15,12,16,18.00
2012,09,15,12,17,18.10
2012,09,15,12,18,18.00
2012,09,15,12,19,17.90
2012,09,15,12,20,17.90
2012,09,15,12,21,17.90
2012,09,15,12,22,17.90
2012,09,15,12,23,17.90
2012,09,15,12,24,17.90
2012,09,15,12,25,17.90
2012,09,15,12,26,17.90
2012,09,15,12,27,18.00
2012,09,15,12,28,18.10
2012,09,15,12,29,18.20
2012,09,15,12,30,18.20
2012,09,15,12,31,18.20
2012,09,15,12,32,18.20
2012,09,15,12,33,18.20
2012,09,15,12,34,18.20
2012,09,15,12,35,18.20
2012,09,15,12,36,18.30
2012,09,15,12,37,18.30
2012,09,15,12,38,18.20
2012,09,15,12,39,18.20
2012,09,15,12,40,18.10
2012,09,15,12,41,18.10
2012,09,15,12,42,18.10
2012,09,15,12,43,18.10
2012,09,15,12,44,18.20
2012,09,15,12,45,18.20
2012,09,15,12,46,18.30
2012,09,15,12,47,18.30
2012,09,15,12,48,18.30
2012,09,15,12,49,18.30
2012,09,15,12,50,18.30
2012,09,15,12,51,18.50
2012,09,15,12,52,18.50
2012,09,15,12,53,18.50
2012,09,15,12,54,18.60
2012,09,15,12,55,18.60
2012,09,15,12,56,18.70
2012,09,15,12,57,18.70
2012,09,15,12,58,18.80
2012,09,15,12,59,18.90
2012,09,15,13,00,18.90
2012,09,15,13,01,18.90
2012,09,15,13,02,18.90
2012,09,15,13,03,18.90
2012,09,15,13,04,18.90
2012,09,15,13,05,18.90
2012,09,15,13,06,19.00
2012,09,15,13,07,19.10
2012,09,15,13,08,19.20
2012,09,15,13,09,19.30
2012,09,15,13,10,19.40
2012,09,15,13,11,19.50
2012,09,15,13,12,19.70
2012,09,15,13,13,19.70
2012,09,15,13,14,19.60
2012,09,15,13,15,19.60
2012,09,15,13,16,19.70
2012,09,15,13,17,19.80
2012,09,15,13,18,19.90
2012,09,15,13,19,20.00
2012,09,15,13,20,20.10
2012,09,15,13,21,20.20
2012,09,15,13,22,20.20
2012,09,15,13,23,20.10
2012,09,15,13,24,20.10
2012,09,15,13,25,20.00
2012,09,15,13,26,19.90
2012,09,15,13,27,19.90
2012,09,15,13,28,20.00
2012,09,15,13,29,20.10
2012,09,15,13,30,20.20
2012,09,15,13,31,20.20
2012,09,15,13,32,20.10
2012,09,15,13,33,20.10
2012,09,15,13,34,20.10
2012,09,15,13,35,20.10
2012,09,15,13,36,20.10
2012,09,15,13,37,20.20
2012,09,15,13,38,20.20
2012,09,15,13,39,20.20
2012,09,15,13,40,20.20
2012,09,15,13,41,20.00
2012,09,15,13,42,19.90
2012,09,15,13,43,19.80
2012,09,15,13,44,19.70
2012,09,15,13,45,19.80
2012,09,15,13,46,19.80
2012,09,15,13,47,19.80
2012,09,15,13,48,19.80
2012,09,15,13,49,19.90
2012,09,15,13,50,19.90
2012,09,15,13,51,19.90
2012,09,15,13,52,19.90
2012,09,15,13,53,19.90
2012,09,15,13,54,19.90
2012,09,15,13,55,19.90
2012,09,15,13,56,19.90
2012,09,15,13,57,19.90
2012,09,15,13,58,19.90
2012,09,15,13,59,19.90
2012,09,15,14,00,19.90
2012,09,15,14,01,19.90
2012,09,15,14,02,20.10
2012,09,15,14,03,20.10
2012,09,15,14,04,20.20
2012,09,15,14,05,20.10
2012,09,15,14,06,20.10
2012,09,15,14,07,20.10
2012,09,15,14,08,20.20
2012,09,15,14,09,20.20
2012,09,15,14,10,20.40
2012,09,15,14,11,20.40
2012,09,15,14,12,20.40
2012,09,15,14,13,20.40
2012,09,15,14,14,20.50
2012,09,15,14,15,20.50
2012,09,15,14,16,20.50
2012,09,15,14,17,20.60
2012,09,15,14,18,20.60
2012,09,15,14,19,20.50
2012,09,15,14,20,20.50
2012,09,15,14,21,20.50
2012,09,15,14,22,20.50
2012,09,15,14,23,20.50
2012,09,15,14,24,20.30
2012,09,15,14,25,20.10
2012,09,15,14,26,20.00
2012,09,15,14,27,20.10
2012,09,15,14,28,20.20
2012,09,15,14,29,20.20
2012,09,15,14,30,20.30
2012,09,15,14,31,20.30
2012,09,15,14,32,20.30
2012,09,15,14,33,20.40
2012,09,15,14,34,20.50
2012,09,15,14,35,20.50
2012,09,15,14,36,20.50
2012,09,15,14,37,20.40
2012,09,15,14,38,20.30
2012,09,15,14,39,20.40
2012,09,15,14,40,20.50
2012,09,15,14,41,20.70
2012,09,15,14,42,20.80
2012,09,15,14,43,20.90
2012,09,15,14,44,20.90
2012,09,15,14,45,20.90
2012,09,15,14,46,20.80
2012,09,15,14,47,20.80
2012,09,15,14,48,20.80
2012,09,15,14,49,20.80
2012,09,15,14,50,20.90
2012,09,15,14,51,21.00
2012,09,15,14,52,21.00
2012,09,15,14,53,21.00
2012,09,15,14,54,21.10
2012,09,15,14,55,21.10
2012,09,15,14,56,21.00
2012,09,15,14,57,21.00
2012,09,15,14,58,21.10
2012,09,15,14,59,21.20
2012,09,15,15,00,21.30
2012,09,15,15,01,21.40
2012,09,15,15,02,21.30
2012,09,15,15,03,21.30
2012,09,15,15,04,21.40
2012,09,15,15,05,21.40
2012,09,15,15,06,21.40
2012,09,15,15,07,21.40
2012,09,15,15,08,21.50
2012,09,15,15,09,21.60
2012,09,15,15,10,21.60
2012,09,15,15,11,21.60
2012,09,15,15,12,21.60
2012,09,15,15,13,21.60
2012,09,15,15,14,21.60
2012,09,15,15,15,21.60
2012,09,15,15,16,21.50
2012,09,15,15,17,21.40
2012,09,15,15,18,21.30
2012,09,15,15,19,21.30
2012,09,15,15,20,21.30
2012,09,15,15,21,21.30
2012,09,15,15,22,21.30
2012,09,15,15,23,21.40
2012,09,15,15,24,21.50
2012,09,15,15,25,21.60
2012,09,15,15,26,21.60
2012,09,15,15,27,21.60
2012,09,15,15,28,21.60
2012,09,15,15,29,21.60
2012,09,15,15,30,21.60
2012,09,15,15,31,21.60
2012,09,15,15,32,21.60
2012,09,15,15,33,21.60
2012,09,15,15,34,21.70
2012,09,15,15,35,21.70
2012,09,15,15,36,21.80
2012,09,15,15,37,21.90
2012,09,15,15,38,21.90
2012,09,15,15,39,21.90
2012,09,15,15,40,21.90
2012,09,15,15,41,21.90
2012,09,15,15,42,21.90
2012,09,15,15,43,21.90
2012,09,15,15,44,22.00
2012,09,15,15,45,22.10
2012,09,15,15,46,22.10
2012,09,15,15,47,22.00
2012,09,15,15,48,21.90
2012,09,15,15,49,21.80
2012,09,15,15,50,21.60
2012,09,15,15,51,21.60
2012,09,15,15,52,21.60
2012,09,15,15,53,21.50
2012,09,15,15,54,21.40
2012,09,15,15,55,21.30
2012,09,15,15,56,21.40
2012,09,15,15,57,21.40
2012,09,15,15,58,21.50
2012,09,15,15,59,21.60
2012,09,15,16,00,21.60
2012,09,15,16,01,21.60
2012,09,15,16,02,21.60
2012,09,15,16,03,21.60
2012,09,15,16,04,21.60
2012,09,15,16,05,21.60
2012,09,15,16,06,21.60
2012,09,15,16,07,21.60
2012,09,15,16,08,21.40
2012,09,15,16,09,21.30
2012,09,15,16,10,21.30
2012,09,15,16,11,21.30
2012,09,15,16,12,21.30
2012,09,15,16,13,21.30
2012,09,15,16,14,21.30
2012,09,15,16,15,21.30
2012,09,15,16,16,21.20
2012,09,15,16,17,21.20
2012,09,15,16,18,21.20
2012,09,15,16,19,21.10
2012,09,15,16,20,21.10
2012,09,15,16,21,21.00
2012,09,15,16,22,21.00
2012,09,15,16,23,21.00
2012,09,15,16,24,21.00
2012,09,15,16,25,21.00
2012,09,15,16,26,21.10
2012,09,15,16,27,21.10
2012,09,15,16,28,21.00
2012,09,15,16,29,21.00
2012,09,15,16,30,20.90
2012,09,15,16,31,20.80
2012,09,15,16,32,20.70
2012,09,15,16,33,20.70
2012,09,15,16,34,20.70
2012,09,15,16,35,20.70
2012,09,15,16,36,20.60
2012,09,15,16,37,20.60
2012,09,15,16,38,20.60
2012,09,15,16,39,20.60
2012,09,15,16,40,20.50
2012,09,15,16,41,20.40
2012,09,15,16,42,20.40
2012,09,15,16,43,20.40
2012,09,15,16,44,20.50
2012,09,15,16,45,20.50
2012,09,15,16,46,20.50
2012,09,15,16,47,20.60
2012,09,15,16,48,20.60
2012,09,15,16,49,20.60
2012,09,15,16,50,20.60
2012,09,15,16,51,20.60
2012,09,15,16,52,20.60
2012,09,15,16,53,20.60
2012,09,15,16,54,20.60
2012,09,15,16,55,20.60
2012,09,15,16,56,20.60
2012,09,15,16,57,20.60
2012,09,15,16,58,20.60
2012,09,15,16,59,20.60
2012,09,15,17,00,20.60
2012,09,15,17,01,20.70
2012,09,15,17,02,20.70
2012,09,15,17,03,20.70
2012,09,15,17,04,20.80
2012,09,15,17,05,20.70
2012,09,15,17,06,20.70
2012,09,15,17,07,20.70
2012,09,15,17,08,20.70
2012,09,15,17,09,20.70
2012,09,15,17,10,20.60
2012,09,15,17,11,20.60
2012,09,15,17,12,20.60
2012,09,15,17,13,20.60
2012,09,15,17,14,20.60
2012,09,15,17,15,20.60
2012,09,15,17,16,20.60
2012,09,15,17,17,20.60
2012,09,15,17,18,20.60
2012,09,15,17,19,20.60